Regional Weather Roundup
Issued by NWS

Home | Current Version | Previous Version | Graphics & Text | Print | Product List | Glossary On
Versions: 1 2 3 4 5 6 7 8 9 10 11 12 13 14 15 16 17 18 19 20 21 22 23 24 25 26 27 28 29 30 31 32 33 34 35 36 37 38 39 40 41 42 43 44 45 46 47 48 49 50
000
ASUS45 KABQ 300610
RWRNM
WEATHER ROUNDUP FOR NEW MEXICO
NATIONAL WEATHER SERVICE ALBUQUERQUE NM
1200 AM MDT MON MAR 30 2015

NOTE: "FAIR" MEANS FEW OR NO CLOUDS BELOW 12,000 FEET AGL WITH NO
       SIGNIFICANT WEATHER OR OBSTRUCTIONS TO VISION.

      THIS PRODUCT IS RELEASED AS TWO VERSIONS.  ONE VERSION NEAR
      THE TOP OF THE HOUR CONTAINING PRELIMINARY DATA FROM ALBUQUERQUE
      AND OTHER STATIONS.  A FINAL VERSION WITH ADDITIONAL DATA IS
      ISSUED ABOUT 10 MINUTES AFTER THE HOUR.

NMZ501-503-504-510>518-300700-
NORTHWEST PLATEAU/NORTHCENTRAL MOUNTAINS

CITY           SKY/WX    TMP DP  RH WIND       PRES   REMARKS
FARMINGTON     CLEAR     53  14  21 NE9       30.18R
6HR MIN TEMP:  51; 6HR MAX TEMP:  75;

LOS ALAMOS     MOCLDY    53  25  33 S13       30.36S
SANTA FE       PTCLDY    55  22  27 VRB5      30.30R
6HR MIN TEMP:  55; 6HR MAX TEMP:  72;

TAOS           PTCLDY    45  25  45 E10       30.32S
ANGEL FIRE     FAIR      34  28  80 CALM      30.39F

$$
NMZ402-403-502-505>509-300700-
WESTCENTRAL MOUNTAINS/SOUTHWEST MOUNTAINS

CITY           SKY/WX    TMP DP  RH WIND       PRES   REMARKS
GALLUP         PTCLDY    43  10  26 E5        30.28R
6HR MIN TEMP:  39; 6HR MAX TEMP:  72;

GRANTS         PTCLDY    48  17  28 SW9       30.29R
SILVER CITY    CLOUDY    55  21  26 NW8       30.24R

$$
NMZ407-409-411-412-300700-
SOUTHERN DESERTS

CITY           SKY/WX    TMP DP  RH WIND       PRES   REMARKS
LORDSBURG      FAIR      59  23  25 CALM      30.16R
DEMING         CLOUDY    60  27  28 W6        30.16S
6HR MIN TEMP:  60; 6HR MAX TEMP:  80;

LAS CRUCES     CLOUDY    65  17  15 SE7       30.18R
HOLLOMAN AFB   MOCLDY    69  15  12 VRB2      30.14S
ALAMOGORDO     MOCLDY    66  21  18 S3        30.18R
T OR C         CLOUDY    62  18  18 VRB5      30.17S
6HR MIN TEMP:  61; 6HR MAX TEMP:  80;


$$
NMZ519>523-300700-
CENTRAL VALLEYS/CENTRAL HIGHLANDS

CITY           SKY/WX    TMP DP  RH WIND       PRES   REMARKS
ALBUQUERQUE    MOCLDY    61  26  26 E22G31    30.21R
6HR MIN TEMP:  61; 6HR MAX TEMP:  77;

DOUBLE EAGLE   MOCLDY    58  25  28 E13G24    30.27R
MORIARTY ARPT  FAIR      51  21  30 W8        30.34R
6HR MIN TEMP:  49; 6HR MAX TEMP:  69;

CLINES CORNERS PTCLDY    46  23  40 E13       30.34S
6HR MIN TEMP:  46; 6HR MAX TEMP:  62;

BELEN          FAIR      65  27  23 SE17G25   30.19R
6HR MIN TEMP:  64; 6HR MAX TEMP:  79;

SOCORRO        FAIR      64  15  15 E5        30.18R
6HR MIN TEMP:  62; 6HR MAX TEMP:  80;


$$
NMZ524>526-539-540-300700-
SOUTHCENTRAL MOUNTAINS

CITY           SKY/WX    TMP DP  RH WIND       PRES   REMARKS
RUIDOSO        CLOUDY    52  27  37 SE3       30.38S

$$
NMZ527>531-300700-
NORTHEAST HIGHLANDS/NORTHEAST PLAINS

CITY           SKY/WX    TMP DP  RH WIND       PRES   REMARKS
LAS VEGAS      PTCLDY    45  23  42 W3        30.36F
6HR MIN TEMP:  44; 6HR MAX TEMP:  60;

RATON          PTCLDY    46  34  62 S9        30.29F
6HR MIN TEMP:  46; 6HR MAX TEMP:  60; 6HR PCP: TRACE;

CLAYTON        CLOUDY    50  25  37 SW8       30.27S
6HR MIN TEMP:  49; 6HR MAX TEMP:  64;


$$
NMZ532>537-300700-
EASTCENTRAL PLAINS

CITY           SKY/WX    TMP DP  RH WIND       PRES   REMARKS
TUCUMCARI      PTCLDY    49  28  44 W8        30.23S
6HR MIN TEMP:  48; 6HR MAX TEMP:  71;

CANNON AFB     CLEAR     53  25  34 E13       30.24S
6HR MIN TEMP:  49; 6HR MAX TEMP:  70;

CLOVIS AIRPORT CLEAR     46  25  42 E6        30.25S

$$
NMZ028-029-538-300700-
SOUTHEAST PLAINS

CITY           SKY/WX    TMP DP  RH WIND       PRES   REMARKS
ROSWELL        MOCLDY    59  32  36 W6        30.23R
6HR MIN TEMP:  58; 6HR MAX TEMP:  82;

ARTESIA        MOCLDY    61  30  31 W6        30.23R
CARLSBAD       PTCLDY    65  32  29 S9        30.19R
6HR MIN TEMP:  61; 6HR MAX TEMP:  86;

HOBBS          CLOUDY    59  28  31 E14       30.20S


$$


USA.gov is the U.S. government's official web portal to all federal, state and local government web resources and services.